This demonstration page uses our WeatherBlox Daily Observations layout. Learn more.

Left ArrowRight Arrow

39.92423, -83.80882

Hourly Observations for July 3, 2020

Temp ( °F °C ) Dew Point ( °F °C ) Humidity (%) Winds ( mph kmh ) Pressure ( in mb ) Visibility ( mi km ) Precip ( " mm )
12:56 am 00:56 Clear 70 21.1 65 18.3 84 84 N N/A 30.01 1016 10 16 N/A
1:56 am 01:56 Mostly Clear 73 22.8 64 17.8 74 74 ESE 3 6 30.01 1016 10 16 N/A
2:56 am 02:56 Mostly Cloudy 71 21.7 66 18.9 84 84 N N/A 30.01 1016 10 16 N/A
3:56 am 03:56 Clear 68 20 66 18.9 93 93 N N/A 30.01 1016 10 16 N/A
4:56 am 04:56 Partly Cloudy 67 19.4 64 17.8 91 91 N N/A 30.01 1016 10 16 N/A
5:56 am 05:56 Partly Cloudy 67 19.4 66 18.9 97 97 N N/A 30.01 1016 10 16 N/A
6:56 am 06:56 Partly Cloudy 68 20 65 18.3 90 90 N N/A 30.02 1017 10 16 N/A
7:56 am 07:56 Sunny with Mist and Fog 72 22.2 68 20 87 87 N N/A 30.03 1017 3 5 N/A
8:56 am 08:56 Sunny 79 26.1 67 19.4 67 67 N N/A 30.03 1017 10 16 0.00 0.00
9:56 am 09:56 Sunny 84 28.9 67 19.4 57 57 NW 6 9 30.03 1017 10 16 N/A
10:56 am 10:56 Sunny 86 30 64 17.8 48 48 NNE 6 9 30.03 1017 10 16 N/A
11:56 am 11:56 Mostly Sunny 88 31.1 63 17.2 43 43 N 8 13 30.03 1017 10 16 N/A
12:56 pm 12:56 Mostly Cloudy 87 30.6 63 17.2 45 45 VRB 7 11 30.03 1017 10 16 N/A
1:56 pm 13:56 Mostly Sunny 89 31.7 62 16.7 41 41 N 9 15 30.01 1016 10 16 N/A
2:56 pm 14:56 Partly Cloudy 88 31.1 62 16.7 42 42 N 10 17 30.00 1016 10 16 N/A
3:56 pm 15:56 Mostly Sunny 91 32.8 59 15 34 34 N 7 11 29.98 1015 10 16 N/A
4:56 pm 16:56 Sunny 89 31.7 60 15.6 38 38 E 6 9 29.97 1015 10 16 N/A
5:56 pm 17:56 Mostly Sunny 89 31.7 61 16.1 39 39 E 6 9 29.96 1015 10 16 N/A
6:56 pm 18:56 Sunny 89 31.7 62 16.7 41 41 N N/A 29.95 1014 10 16 N/A
7:56 pm 19:56 Sunny 86 30 67 19.4 53 53 ESE 5 7 29.94 1014 10 16 N/A
8:56 pm 20:56 Sunny 83 28.3 68 20 61 61 N N/A 29.95 1014 10 16 N/A
9:56 pm 21:56 Clear 78 25.6 66 18.9 67 67 SW 3 6 29.96 1015 10 16 N/A
10:56 pm 22:56 Clear 76 24.4 66 18.9 72 72 N N/A 29.98 1015 10 16 N/A
11:56 pm 23:56 Clear 74 23.3 68 20 82 82 N N/A 29.98 1015 10 16 N/A

Powered by AerisWeather